GW0500 Weather Reports


Display with metric or nautical units.
time (UTC)temp
F
wind
direction
speed
MPH
gust
MPH
rain 1hr
in
rain 24hr
in
rain mn
in
humidity
%
barometer
mb
20260906085548 66 0 0.0 0.0 0.00 0.00 0.00 68 1020.2
20260906085045 66 0 0.0 0.0 0.00 0.00 0.00 69 1020.2
20260906084601 66 0 0.0 1.0 0.00 0.00 0.00 70 1020.2
20260906084050 65 0 0.0 1.0 0.00 0.00 0.00 69 1020.3
20260906083544 65 0 0.0 1.0 0.00 0.00 0.00 70 1020.3
20260906083101 65 0 0.0 0.0 0.00 0.00 0.00 71 1020.3
20260906082545 65 0 0.0 0.0 0.00 0.00 0.00 71 1020.3
20260906082049 65 0 0.0 1.0 0.00 0.00 0.00 71 1020.4
20260906081603 65 0 0.0 1.0 0.00 0.00 0.00 72 1020.3
20260906081058 65 0 0.0 2.0 0.00 0.00 0.00 72 1020.5
20260906080545 65 65 0.0 2.0 0.00 0.00 0.00 72 1020.5
20260906080110 65 0 0.0 0.0 0.00 0.00 0.00 72 1020.6
20260906075545 66 0 0.0 0.0 0.00 0.00 0.00 72 1020.8
20260906075044 66 0 0.0 0.0 0.00 0.00 0.00 71 1020.8
20260906074602 66 0 0.0 0.0 0.00 0.00 0.00 69 1020.9
20260906074045 67 0 0.0 0.0 0.00 0.00 0.00 66 1020.8
20260906073545 67 0 0.0 0.0 0.00 0.00 0.00 64 1020.9
20260906073101 67 0 0.0 0.0 0.00 0.00 0.00 63 1021.0
20260906072545 67 0 0.0 0.0 0.00 0.00 0.00 62 1020.8
20260906072046 67 0 0.0 0.0 0.00 0.00 0.00 62 1020.8
20260906071604 67 0 0.0 0.0 0.00 0.00 0.00 62 1021.0
20260906071043 67 0 0.0 0.0 0.00 0.00 0.00 63 1020.9
20260906070544 67 0 0.0 0.0 0.00 0.00 0.00 63 1020.9
20260906070058 67 0 0.0 0.0 0.00 0.00 0.00 63 1020.9
20260906065543 67 0 0.0 0.0 0.00 0.00 0.00 63 1020.9
20260906065044 67 0 0.0 0.0 0.00 0.00 0.00 63 1020.8
20260906064602 67 0 0.0 0.0 0.00 0.00 0.00 62 1020.8
20260906064045 67 0 0.0 0.0 0.00 0.00 0.00 61 1020.9
20260906063544 67 0 0.0 0.0 0.00 0.00 0.00 60 1020.9
20260906063102 67 0 0.0 0.0 0.00 0.00 0.00 59 1020.8
20260906062545 67 0 0.0 0.0 0.00 0.00 0.00 58 1020.8
20260906062043 67 0 0.0 0.0 0.00 0.00 0.00 58 1020.6
20260906061605 67 0 0.0 0.0 0.00 0.00 0.00 58 1020.7
20260906061045 67 0 0.0 0.0 0.00 0.00 0.00 58 1020.8
20260906060543 67 0 0.0 0.0 0.00 0.00 0.00 57 1020.9
20260906060104 67 0 0.0 0.0 0.00 0.00 0.00 57 1020.8
20260906055542 67 0 0.0 0.0 0.00 0.00 0.00 57 1020.9
20260906055045 67 0 0.0 0.0 0.00 0.00 0.00 56 1020.8
20260906054602 67 0 0.0 0.0 0.00 0.00 0.00 57 1020.9
20260906054045 67 0 0.0 0.0 0.00 0.00 0.00 56 1020.8
20260906053545 67 0 0.0 0.0 0.00 0.00 0.00 56 1020.9
20260906053105 67 0 0.0 0.0 0.00 0.00 0.00 56 1020.9
20260906052546 67 0 0.0 0.0 0.00 0.00 0.00 55 1020.9
20260906052045 67 0 0.0 0.0 0.00 0.00 0.00 55 1020.9
20260906051607 67 0 0.0 0.0 0.00 0.00 0.00 55 1021.0
20260906051044 68 0 0.0 0.0 0.00 0.00 0.00 55 1021.0
20260906050545 68 0 0.0 0.0 0.00 0.00 0.00 55 1020.9
20260906045547 68 0 0.0 0.0 0.00 0.00 0.00 54 1021.0
20260906045049 68 0 0.0 0.0 0.00 0.00 0.00 54 1020.9
20260906044600 68 0 0.0 0.0 0.00 0.00 0.00 54 1021.0
20260906044045 68 0 0.0 0.0 0.00 0.00 0.00 54 1021.1
20260906043542 68 0 0.0 0.0 0.00 0.00 0.00 54 1021.1
20260906043056 68 0 0.0 0.0 0.00 0.00 0.00 54 1021.1
20260906042545 68 0 0.0 0.0 0.00 0.00 0.00 54 1021.2
20260906042043 68 0 0.0 0.0 0.00 0.00 0.00 53 1021.1
20260906041602 68 0 0.0 0.0 0.00 0.00 0.00 53 1021.0
20260906041046 69 0 0.0 0.0 0.00 0.00 0.00 53 1021.0
20260906040544 69 0 0.0 1.0 0.00 0.00 0.00 53 1021.0
20260906040118 69 0 0.0 1.0 0.00 0.00 0.00 53 1021.0
20260906035544 69 0 0.0 1.0 0.00 0.00 0.00 53 1020.8
20260906035048 69 0 0.0 1.0 0.00 0.00 0.00 53 1020.8
20260906034602 69 0 0.0 1.0 0.00 0.00 0.00 53 1020.8
20260906034045 70 0 0.0 2.0 0.00 0.00 0.00 54 1020.9
20260906033543 70 0 0.0 2.0 0.00 0.00 0.00 53 1020.7
20260906033102 70 130 0.0 2.0 0.00 0.00 0.00 54 1020.7
20260906032543 70 0 0.0 2.0 0.00 0.00 0.00 54 1020.7
20260906032043 70 0 0.0 1.0 0.00 0.00 0.00 54 1020.7
20260906031600 70 0 0.0 1.0 0.00 0.00 0.00 54 1020.6
20260906031044 70 0 0.0 1.0 0.00 0.00 0.00 55 1020.6
20260906030545 71 0 0.0 0.0 0.00 0.00 0.00 55 1020.6
20260906030110 71 0 0.0 0.0 0.00 0.00 0.00 54 1020.5
20260906025542 71 0 0.0 0.0 0.00 0.00 0.00 54 1020.4
20260906025044 71 0 0.0 0.0 0.00 0.00 0.00 54 1020.5
20260906024627 72 0 0.0 0.0 0.00 0.00 0.00 54 1020.4
20260906024046 72 0 0.0 2.0 0.00 0.00 0.00 54 1020.3
20260906023543 72 0 0.0 2.0 0.00 0.00 0.00 53 1020.2
20260906023104 72 0 0.0 1.0 0.00 0.00 0.00 53 1020.3
20260906022547 72 0 0.0 2.0 0.00 0.00 0.00 53 1020.4
20260906022043 73 0 0.0 2.0 0.00 0.00 0.00 52 1020.4
20260906021611 73 201 0.0 2.0 0.00 0.00 0.00 52 1020.4
20260906021047 73 0 0.0 2.0 0.00 0.00 0.00 52 1020.4
20260906020548 73 0 0.0 2.0 0.00 0.00 0.00 52 1020.4
20260906020100 73 94 0.0 3.0 0.00 0.00 0.00 52 1020.5
20260906015548 74 0 0.0 4.0 0.00 0.00 0.00 52 1020.6
20260906015050 74 0 0.0 5.0 0.00 0.00 0.00 52 1020.6
20260906014608 74 0 0.0 5.0 0.00 0.00 0.00 52 1020.6
20260906014048 74 0 1.0 5.0 0.00 0.00 0.00 52 1020.6
20260906013549 74 106 0.0 3.0 0.00 0.00 0.00 52 1020.6
20260906013128 74 0 0.0 4.0 0.00 0.00 0.00 51 1020.6
20260906012544 75 0 0.0 4.0 0.00 0.00 0.00 51 1020.5
20260906012046 75 169 0.0 2.0 0.00 0.00 0.00 50 1020.6
20260906011559 75 0 0.0 1.0 0.00 0.00 0.00 50 1020.5
20260906011045 75 0 0.0 4.0 0.00 0.00 0.00 50 1020.6
20260906010543 75 0 0.0 4.0 0.00 0.00 0.00 49 1020.6
20260906010119 75 0 1.0 4.0 0.00 0.00 0.00 50 1020.5
20260906005546 76 88 0.0 7.0 0.00 0.00 0.00 49 1020.6
20260906005043 76 157 0.0 7.0 0.00 0.00 0.00 49 1020.5
20260906004610 76 144 0.0 7.0 0.00 0.00 0.00 48 1020.6
20260906004044 77 0 1.0 7.0 0.00 0.00 0.00 47 1020.5
20260906003544 77 143 0.0 5.0 0.00 0.00 0.00 47 1020.4
20260906003120 77 0 0.0 5.0 0.00 0.00 0.00 47 1020.5
20260906002543 78 137 1.0 4.0 0.00 0.00 0.00 46 1020.5
20260906002046 78 162 2.0 6.0 0.00 0.00 0.00 47 1020.5
20260906001559 79 143 1.0 7.0 0.00 0.00 0.00 45 1020.5
20260906001043 79 187 1.0 7.0 0.00 0.00 0.00 44 1020.4
20260906000545 79 165 1.0 7.0 0.00 0.00 0.00 44 1020.5
20260906000106 79 163 2.0 7.0 0.00 0.00 0.00 43 1020.5
20260905235543 79 82 1.0 9.0 0.00 0.00 0.00 42 1020.3
20260905235043 79 240 1.0 10.0 0.00 0.00 0.00 42 1020.5
20260905234609 80 129 3.0 10.0 0.00 0.00 0.00 41 1020.5
20260905234046 80 157 1.0 6.0 0.00 0.00 0.00 41 1020.4
20260905233545 80 0 2.0 7.0 0.00 0.00 0.00 40 1020.5
20260905233101 80 196 3.0 7.0 0.00 0.00 0.00 40 1020.5
20260905232618 81 0 2.0 7.0 0.00 0.00 0.00 38 1020.5
20260905232045 81 190 2.0 10.0 0.00 0.00 0.00 38 1020.5
20260905231558 81 290 2.0 10.0 0.00 0.00 0.00 37 1020.3
20260905231043 81 247 2.0 9.0 0.00 0.00 0.00 37 1020.5
20260905230548 81 115 1.0 10.0 0.00 0.00 0.00 35 1020.4
20260905230106 81 352 3.0 10.0 0.00 0.00 0.00 34 1020.3
20260905225546 81 175 3.0 9.0 0.00 0.00 0.00 35 1020.3
20260905225047 82 0 2.0 9.0 0.00 0.00 0.00 35 1020.4
20260905224559 82 191 3.0 13.0 0.00 0.00 0.00 35 1020.5
20260905224045 82 258 5.0 13.0 0.00 0.00 0.00 34 1020.6
20260905223545 82 153 3.0 12.0 0.00 0.00 0.00 34 1020.3
20260905223105 82 126 3.0 12.0 0.00 0.00 0.00 37 1020.4
20260905222548 82 138 2.0 8.0 0.00 0.00 0.00 38 1020.6
20260905222050 82 153 3.0 9.0 0.00 0.00 0.00 37 1020.5
20260905221605 82 196 3.0 9.0 0.00 0.00 0.00 40 1020.5
20260905221047 81 284 2.0 11.0 0.00 0.00 0.00 41 1020.7
20260905220548 82 101 2.0 11.0 0.00 0.00 0.00 39 1020.6
20260905215545 81 209 2.0 10.0 0.00 0.00 0.00 40 1020.7
20260905215047 81 132 3.0 10.0 0.00 0.00 0.00 41 1020.6
20260905214557 81 159 2.0 10.0 0.00 0.00 0.00 39 1020.8
20260905214044 82 0 2.0 12.0 0.00 0.00 0.00 39 1020.8
20260905213548 82 238 3.0 12.0 0.00 0.00 0.00 39 1021.0
20260905213106 81 142 3.0 10.0 0.00 0.00 0.00 38 1021.1
20260905212545 82 209 4.0 10.0 0.00 0.00 0.00 38 1021.1
20260905212044 82 209 3.0 10.0 0.00 0.00 0.00 39 1021.1
20260905211605 82 172 2.0 8.0 0.00 0.00 0.00 40 1021.1
20260905211049 81 107 3.0 8.0 0.00 0.00 0.00 39 1021.1
20260905210549 81 144 3.0 8.0 0.00 0.00 0.00 39 1021.2
20260905210059 81 136 2.0 8.0 0.00 0.00 0.00 38 1021.2
20260905205544 81 166 3.0 8.0 0.00 0.00 0.00 37 1021.5
20260905205044 81 227 2.0 9.0 0.00 0.00 0.00 36 1021.4
20260905204601 81 157 2.0 9.0 0.00 0.00 0.00 36 1021.4
20260905204047 80 172 2.0 9.0 0.00 0.00 0.00 33 1021.6
20260905203546 81 307 1.0 10.0 0.00 0.00 0.00 33 1021.4
20260905203101 81 80 2.0 10.0 0.00 0.00 0.00 34 1021.6
20260905202544 80 204 2.0 10.0 0.00 0.00 0.00 31 1021.6
20260905202043 79 188 0.0 7.0 0.00 0.00 0.00 34 1021.4
20260905201558 79 173 2.0 10.0 0.00 0.00 0.00 35 1021.5
20260905201045 79 212 2.0 10.0 0.00 0.00 0.00 35 1021.4
20260905200617 79 185 2.0 8.0 0.00 0.00 0.00 34 1021.4
20260905200108 79 271 3.0 15.0 0.00 0.00 0.00 34 1021.6
20260905195549 80 0 0.0 15.0 0.00 0.00 0.00 33 1021.5
20260905195049 80 0 2.0 10.0 0.00 0.00 0.00 32 1021.6
20260905194604 80 192 2.0 10.0 0.00 0.00 0.00 32 1021.6
20260905194048 80 227 1.0 11.0 0.00 0.00 0.00 34 1021.8
20260905193548 79 49 3.0 11.0 0.00 0.00 0.00 31 1021.9
20260905193110 79 304 2.0 8.0 0.00 0.00 0.00 32 1021.8
20260905192545 79 153 3.0 12.0 0.00 0.00 0.00 33 1021.9
20260905192044 79 188 3.0 12.0 0.00 0.00 0.00 34 1022.0
20260905191600 79 180 5.0 12.0 0.00 0.00 0.00 32 1021.9
20260905191045 79 121 3.0 11.0 0.00 0.00 0.00 33 1021.9
20260905190542 79 206 3.0 10.0 0.00 0.00 0.00 30 1021.9
20260905190103 79 0 3.0 10.0 0.00 0.00 0.00 33 1021.8
20260905185544 79 122 3.0 9.0 0.00 0.00 0.00 34 1021.7
20260905185051 79 229 2.0 9.0 0.00 0.00 0.00 34 1021.8
20260905184612 79 180 2.0 14.0 0.00 0.00 0.00 33 1021.9
20260905184150 78 157 4.0 14.0 0.00 0.00 0.00 33 1021.7
20260905184045 78 157 4.0 14.0 0.00 0.00 0.00 33 1021.7
20260905183546 78 164 4.0 13.0 0.00 0.00 0.00 33 1021.8
20260905183107 78 116 2.0 8.0 0.00 0.00 0.00 35 1021.8
20260905182544 78 76 3.0 8.0 0.00 0.00 0.00 34 1021.8
20260905182045 78 154 1.0 8.0 0.00 0.00 0.00 32 1021.8
20260905181604 77 161 1.0 8.0 0.00 0.00 0.00 33 1021.8
20260905181044 77 186 1.0 9.0 0.00 0.00 0.00 33 1021.9
20260905180544 77 119 4.0 9.0 0.00 0.00 0.00 35 1022.0
20260905180108 77 173 1.0 8.0 0.00 0.00 0.00 33 1021.9
20260905175546 76 227 1.0 10.0 0.00 0.00 0.00 35 1021.8
20260905175045 76 158 2.0 10.0 0.00 0.00 0.00 36 1021.8
20260905174559 76 128 2.0 7.0 0.00 0.00 0.00 33 1021.8
20260905174046 76 0 2.0 7.0 0.00 0.00 0.00 31 1021.7
20260905173544 76 188 2.0 10.0 0.00 0.00 0.00 30 1021.6
20260905173059 76 113 3.0 10.0 0.00 0.00 0.00 31 1021.6
20260905172544 76 113 1.0 8.0 0.00 0.00 0.00 27 1021.7
20260905172043 75 263 1.0 8.0 0.00 0.00 0.00 25 1021.5
20260905171559 75 153 1.0 10.0 0.00 0.00 0.00 26 1021.4
20260905171044 74 149 2.0 10.0 0.00 0.00 0.00 27 1021.4
20260905170544 74 149 1.0 5.0 0.00 0.00 0.00 25 1021.4
20260905170112 74 161 1.0 7.0 0.00 0.00 0.00 24 1021.4
20260905165547 74 136 1.0 7.0 0.00 0.00 0.00 20 1021.3
20260905165044 74 199 1.0 7.0 0.00 0.00 0.00 21 1021.2
20260905164559 74 209 1.0 6.0 0.00 0.00 0.00 19 1021.2
20260905164045 73 0 1.0 6.0 0.00 0.00 0.00 18 1021.2
20260905163544 73 153 0.0 5.0 0.00 0.00 0.00 18 1021.3
20260905163057 72 150 1.0 5.0 0.00 0.00 0.00 17 1021.2
20260905162547 72 126 0.0 3.0 0.00 0.00 0.00 24 1021.2
20260905162044 71 124 0.0 4.0 0.00 0.00 0.00 20 1021.2
20260905161559 71 0 0.0 4.0 0.00 0.00 0.00 22 1021.2
20260905161045 70 73 0.0 3.0 0.00 0.00 0.00 23 1021.1
20260905160544 68 0 1.0 3.0 0.00 0.00 0.00 22 1021.1
20260905160101 67 55 1.0 4.0 0.00 0.00 0.00 25 1021.1
20260905155545 66 55 1.0 4.0 0.00 0.00 0.00 24 1021.1
20260905155046 65 57 1.0 4.0 0.00 0.00 0.00 26 1021.1
20260905154605 64 57 1.0 4.0 0.00 0.00 0.00 26 1021.0
20260905154042 63 49 1.0 3.0 0.00 0.00 0.00 27 1021.0
20260905153548 62 0 0.0 4.0 0.00 0.00 0.00 29 1020.8
20260905153103 62 53 0.0 4.0 0.00 0.00 0.00 30 1020.8
20260905152546 61 54 1.0 4.0 0.00 0.00 0.00 29 1020.8
20260905152046 61 44 1.0 3.0 0.00 0.00 0.00 30 1020.8
20260905151605 61 44 0.0 3.0 0.00 0.00 0.00 31 1020.7
20260905151045 61 44 1.0 3.0 0.00 0.00 0.00 31 1020.6
20260905150544 61 44 1.0 3.0 0.00 0.00 0.00 31 1020.6
20260905145547 61 0 0.0 3.0 0.00 0.00 0.00 31 1020.6
20260905145050 61 0 1.0 3.0 0.00 0.00 0.00 32 1020.5
20260905144559 61 0 0.0 3.0 0.00 0.00 0.00 31 1020.5
20260905144051 61 42 0.0 2.0 0.00 0.00 0.00 31 1020.5
20260905143547 61 0 0.0 2.0 0.00 0.00 0.00 30 1020.4
20260905143108 61 0 0.0 2.0 0.00 0.00 0.00 31 1020.3
20260905142545 61 45 0.0 3.0 0.00 0.00 0.00 29 1020.2
20260905142045 62 0 0.0 4.0 0.00 0.00 0.00 29 1020.2
20260905141559 62 45 0.0 4.0 0.00 0.00 0.00 28 1020.2
20260905141050 61 0 0.0 2.0 0.00 0.00 0.00 29 1020.1
20260905140548 61 0 0.0 2.0 0.00 0.00 0.00 29 1020.1
20260905135546 60 49 0.0 2.0 0.00 0.00 0.00 29 1019.9
20260905135049 61 0 0.0 3.0 0.00 0.00 0.00 29 1019.9
20260905134609 61 0 0.0 3.0 0.00 0.00 0.00 29 1019.8
20260905134050 61 0 0.0 3.0 0.00 0.00 0.00 28 1019.7
20260905133548 61 0 1.0 3.0 0.00 0.00 0.00 29 1019.7
20260905133057 61 0 0.0 3.0 0.00 0.00 0.00 29 1019.6
20260905132550 61 45 0.0 3.0 0.00 0.00 0.00 28 1019.6
20260905132046 62 0 0.0 3.0 0.00 0.00 0.00 29 1019.5
20260905131559 62 5 0.0 4.0 0.00 0.00 0.00 28 1019.5
20260905131044 62 309 0.0 4.0 0.00 0.00 0.00 28 1019.4
20260905130545 62 53 0.0 3.0 0.00 0.00 0.00 28 1019.3
20260905125619 62 327 1.0 5.0 0.00 0.00 0.00 27 1019.3
20260905125045 61 0 0.0 4.0 0.00 0.00 0.00 27 1019.3
20260905124605 61 52 0.0 4.0 0.00 0.00 0.00 28 1019.3
20260905124044 60 37 0.0 3.0 0.00 0.00 0.00 28 1019.4
20260905123548 60 62 0.0 3.0 0.00 0.00 0.00 27 1019.2
20260905123105 60 277 0.0 3.0 0.00 0.00 0.00 28 1019.3
20260905122547 61 0 0.0 2.0 0.00 0.00 0.00 28 1019.3
20260905122048 61 0 0.0 6.0 0.00 0.00 0.00 28 1019.2
20260905121557 61 50 0.0 6.0 0.00 0.00 0.00 27 1019.2
20260905121047 60 157 1.0 6.0 0.00 0.00 0.00 28 1019.3
20260905120544 60 0 1.0 4.0 0.00 0.00 0.00 27 1019.3
20260905120106 60 51 0.0 4.0 0.00 0.00 0.00 26 1019.1
20260905115550 60 0 0.0 4.0 0.00 0.00 0.00 27 1019.1
20260905115048 60 330 0.0 3.0 0.00 0.00 0.00 26 1019.2
20260905114601 60 0 0.0 3.0 0.00 0.00 0.00 26 1019.1
20260905114048 59 35 0.0 4.0 0.00 0.00 0.00 25 1019.1
20260905113548 59 0 0.0 4.0 0.00 0.00 0.00 25 1019.1
20260905113059 59 26 0.0 2.0 0.00 0.00 0.00 25 1019.2
20260905112544 59 338 0.0 2.0 0.00 0.00 0.00 25 1019.2
20260905112048 59 0 0.0 2.0 0.00 0.00 0.00 26 1019.2
20260905111646 59 348 0.0 2.0 0.00 0.00 0.00 26 1019.1
20260905111047 59 0 0.0 3.0 0.00 0.00 0.00 25 1019.2
20260905110548 59 0 0.0 3.0 0.00 0.00 0.00 27 1019.3
20260905110059 59 339 0.0 3.0 0.00 0.00 0.00 26 1019.4
20260905105548 59 0 0.0 2.0 0.00 0.00 0.00 27 1019.4
20260905105045 59 0 0.0 2.0 0.00 0.00 0.00 25 1019.4
20260905104559 59 44 0.0 4.0 0.00 0.00 0.00 25 1019.4
20260905104047 58 0 0.0 4.0 0.00 0.00 0.00 27 1019.4
20260905103549 58 44 0.0 3.0 0.00 0.00 0.00 25 1019.4
20260905103100 57 47 0.0 2.0 0.00 0.00 0.00 27 1019.3
20260905102548 57 329 0.0 3.0 0.00 0.00 0.00 29 1019.3
20260905102048 57 0 0.0 3.0 0.00 0.00 0.00 30 1019.4
20260905101556 56 34 0.0 3.0 0.00 0.00 0.00 32 1019.5
20260905101047 56 0 0.0 3.0 0.00 0.00 0.00 29 1019.4
20260905100549 56 0 0.0 2.0 0.00 0.00 0.00 33 1019.5
20260905100109 56 0 0.0 2.0 0.00 0.00 0.00 33 1019.6
20260905095544 56 0 0.0 1.0 0.00 0.00 0.00 34 1019.6
20260905095048 56 0 0.0 1.0 0.00 0.00 0.00 36 1019.7
20260905094559 55 0 0.0 1.0 0.00 0.00 0.00 35 1019.7
20260905094058 55 0 0.0 1.0 0.00 0.00 0.00 36 1019.7
20260905093549 55 0 0.0 1.0 0.00 0.00 0.00 36 1019.7
20260905093100 55 0 0.0 1.0 0.00 0.00 0.00 38 1019.7
20260905092546 55 0 0.0 1.0 0.00 0.00 0.00 39 1019.8
20260905092045 55 0 0.0 1.0 0.00 0.00 0.00 39 1019.8
20260905091610 55 0 0.0 1.0 0.00 0.00 0.00 40 1019.7
20260905091045 55 0 0.0 1.0 0.00 0.00 0.00 40 1019.7
20260905090544 55 0 0.0 0.0 0.00 0.00 0.00 42 1019.8